星链-6248 (STARLINK-6248 )

导读 | 星芒AI

STARLINK-6248 是 SpaceX Starlink 卫星互联网项目中的一颗低轨卫星,属于第 19 批部署的星链卫星群。该卫星于 2022 年发射,运行在约 550 公里的轨道高度,旨在为全球用户提供高速互联网服务。作为星链计划的一部分,STARLINK-6248 采用先进推进系统,具备自主变轨和避障能力,有助于提升网络覆盖与稳定性。该卫星支持 Ku 和 Ka 频段通信,助力实现 SpaceX 构建全球宽带网络的目标。

基本信息
目录编号:
57082
目录名称:
STARLINK-6248
国际标识:
2023-088AL
轨道中心:
EARTH
卫星名称:
星链-6248
卫星全名:
星链-6248 (STARLINK-6248 )
卫星状态:
在轨 (已飞行865 天)
发射日期:
2023-06-22 UTC
国别 :
美国 (US)
星等 :
--
轨道信息
数据来源 国际轨道数据
星历时间: 2025-11-02T08:42:45+0800
1天前
查看轨道信息
半长轴: 6937.211km
偏心率: 0.0001385
轨道倾角: 43.005°
近地点辐角 276.556°
升交点赤经 68.367°
平近点角 83.513°
近地点: 558.115km
远地点: 560.037km
周期: 95.838分钟
每日圈数: 15.025381
详细信息
固有亮度:
5
最大亮度:
2.4
卫星平台:
Starlink v1.5
覆盖范围:
全球
运营商:
太空探索技术公司
运营商所在国:
美国
制造商(研发单位):
太空探索技术公司
制造商所在国:
美国
使用方式:
暂无
卫星简介
星链(Starlink)计划是由太空探索技术公司(SpaceX)提出的一个巨型低轨卫星互联网星座项目,计划在2019年至2024年间在太空搭建由约1.2万颗卫星组成的“星链”网络,其中1584颗将部署在地球上空550千米处的近地轨道,并从2020年开始工作。该卫星仍在工作。
2D轨道图
3D轨道图
轨道高度分析图
轨道倾角分析图
轨道综合分析图
查看轨道综合分析图